| time (UTC) | temp F | wind direction | speed MPH | gust MPH | rain 1hr in | rain 24hr in | rain mn in | humidity % | barometer mb |
| 20260507180049 | 60 | 221 | 1.0 | 5.0 | 0.00 | 0.00 | 0.00 | 58 | 1012.7 |
| 20260507174604 | 61 | 271 | 0.0 | 3.0 | 0.00 | 0.00 | 0.00 | 57 | 1012.5 |
| 20260507173025 | 62 | 245 | 0.0 | 4.0 | 0.00 | 0.00 | 0.00 | 54 | 1012.3 |
| 20260507171527 | 63 | 283 | 1.0 | 4.0 | 0.00 | 0.00 | 0.00 | 54 | 1012.0 |
| 20260507164638 | 64 | 300 | 0.0 | 4.0 | 0.00 | 0.00 | 0.00 | 53 | 1011.8 |
| 20260507163102 | 63 | 281 | 1.0 | 6.0 | 0.00 | 0.00 | 0.00 | 52 | 1011.9 |
| 20260507161527 | 64 | 234 | 2.0 | 6.0 | 0.00 | 0.00 | 0.00 | 51 | 1011.9 |
| 20260507160114 | 64 | 356 | 1.0 | 11.0 | 0.00 | 0.00 | 0.00 | 51 | 1011.9 |
| 20260507154556 | 64 | 221 | 3.0 | 9.0 | 0.00 | 0.00 | 0.00 | 50 | 1011.9 |
| 20260507153044 | 66 | 254 | 5.0 | 12.0 | 0.00 | 0.00 | 0.00 | 49 | 1011.8 |
| 20260507151507 | 66 | 245 | 3.0 | 8.0 | 0.00 | 0.00 | 0.00 | 49 | 1011.7 |
| 20260507150038 | 67 | 287 | 3.0 | 9.0 | 0.00 | 0.00 | 0.00 | 48 | 1011.6 |
| 20260507144508 | 67 | 257 | 3.0 | 10.0 | 0.00 | 0.00 | 0.00 | 50 | 1011.4 |
| 20260507143036 | 67 | 267 | 3.0 | 10.0 | 0.00 | 0.00 | 0.00 | 51 | 1011.4 |
| 20260507141512 | 67 | 9 | 2.0 | 8.0 | 0.00 | 0.00 | 0.00 | 52 | 1011.4 |
| 20260507140041 | 65 | 290 | 2.0 | 8.0 | 0.00 | 0.00 | 0.00 | 52 | 1011.5 |
| 20260507134600 | 65 | 301 | 2.0 | 7.0 | 0.00 | 0.00 | 0.00 | 54 | 1011.5 |
| 20260507133056 | 65 | 276 | 1.0 | 10.0 | 0.00 | 0.00 | 0.00 | 54 | 1011.6 |
| 20260507131530 | 66 | 311 | 3.0 | 10.0 | 0.00 | 0.00 | 0.00 | 53 | 1011.6 |
| 20260507130107 | 66 | 257 | 1.0 | 8.0 | 0.00 | 0.00 | 0.00 | 51 | 1011.6 |
| 20260507124503 | 67 | 200 | 3.0 | 9.0 | 0.00 | 0.00 | 0.00 | 51 | 1011.5 |
| 20260507123026 | 66 | 236 | 1.0 | 8.0 | 0.00 | 0.00 | 0.00 | 50 | 1011.5 |
| 20260507121541 | 66 | 248 | 3.0 | 8.0 | 0.00 | 0.00 | 0.00 | 50 | 1011.5 |
| 20260507120050 | 67 | 199 | 2.0 | 9.0 | 0.00 | 0.00 | 0.00 | 50 | 1011.6 |
| 20260507114512 | 67 | 245 | 3.0 | 8.0 | 0.00 | 0.00 | 0.00 | 49 | 1011.5 |
| 20260507113019 | 67 | 301 | 3.0 | 10.0 | 0.00 | 0.00 | 0.00 | 49 | 1011.6 |
| 20260507111548 | 66 | 287 | 4.0 | 10.0 | 0.00 | 0.00 | 0.00 | 51 | 1011.5 |
| 20260507110021 | 65 | 235 | 5.0 | 9.0 | 0.00 | 0.00 | 0.00 | 53 | 1011.5 |
| 20260507104533 | 65 | 231 | 1.0 | 4.0 | 0.00 | 0.00 | 0.00 | 53 | 1011.7 |
| 20260507103035 | 66 | 207 | 5.0 | 12.0 | 0.00 | 0.00 | 0.00 | 52 | 1011.7 |
| 20260507101526 | 65 | 141 | 4.0 | 13.0 | 0.00 | 0.00 | 0.00 | 54 | 1011.7 |
| 20260507100035 | 65 | 274 | 2.0 | 11.0 | 0.00 | 0.00 | 0.00 | 53 | 1011.6 |
| 20260507094539 | 65 | 286 | 3.0 | 9.0 | 0.00 | 0.00 | 0.00 | 54 | 1011.4 |
| 20260507093034 | 65 | 281 | 1.0 | 5.0 | 0.00 | 0.00 | 0.00 | 57 | 1011.4 |
| 20260507091548 | 64 | 49 | 0.0 | 8.0 | 0.00 | 0.00 | 0.00 | 61 | 1011.4 |
| 20260507090040 | 62 | 293 | 1.0 | 7.0 | 0.00 | 0.00 | 0.00 | 62 | 1011.5 |
| 20260507084600 | 62 | 284 | 1.0 | 8.0 | 0.00 | 0.00 | 0.00 | 62 | 1011.5 |
| 20260507083027 | 61 | 235 | 1.0 | 6.0 | 0.00 | 0.00 | 0.00 | 64 | 1011.3 |
| 20260507081543 | 59 | 306 | 3.0 | 6.0 | 0.00 | 0.00 | 0.00 | 66 | 1011.2 |
| 20260507080004 | 58 | 174 | 2.0 | 12.0 | 0.00 | 0.00 | 0.00 | 67 | 1011.1 |
| 20260507074533 | 58 | 240 | 3.0 | 7.0 | 0.00 | 0.00 | 0.00 | 69 | 1011.0 |
| 20260507073059 | 59 | 255 | 2.0 | 8.0 | 0.00 | 0.00 | 0.00 | 69 | 1011.0 |
| 20260507071515 | 58 | 227 | 3.0 | 8.0 | 0.00 | 0.00 | 0.00 | 72 | 1010.9 |
| 20260507070020 | 56 | 178 | 3.0 | 14.0 | 0.00 | 0.00 | 0.00 | 73 | 1010.9 |
| 20260507064523 | 56 | 258 | 1.0 | 6.0 | 0.00 | 0.00 | 0.00 | 76 | 1010.9 |
| 20260507063039 | 55 | 200 | 4.0 | 10.0 | 0.00 | 0.00 | 0.00 | 77 | 1010.8 |
| 20260507061548 | 55 | 283 | 2.0 | 7.0 | 0.00 | 0.00 | 0.00 | 78 | 1010.7 |
| 20260507060006 | 55 | 245 | 2.0 | 7.0 | 0.00 | 0.00 | 0.00 | 79 | 1010.3 |
| 20260507054503 | 55 | 278 | 1.0 | 7.0 | 0.00 | 0.00 | 0.00 | 80 | 1010.3 |
| 20260507053033 | 54 | 225 | 2.0 | 10.0 | 0.00 | 0.00 | 0.00 | 81 | 1010.3 |
| 20260507051544 | 54 | 236 | 2.0 | 7.0 | 0.00 | 0.00 | 0.00 | 81 | 1010.2 |
| 20260507050110 | 54 | 253 | 1.0 | 6.0 | 0.00 | 0.00 | 0.00 | 82 | 1010.0 |
| 20260507044602 | 54 | 285 | 1.0 | 8.0 | 0.00 | 0.00 | 0.00 | 83 | 1009.7 |
| 20260507043016 | 54 | 225 | 1.0 | 4.0 | 0.00 | 0.00 | 0.00 | 83 | 1009.3 |
| 20260507041521 | 54 | 228 | 0.0 | 3.0 | 0.00 | 0.00 | 0.00 | 85 | 1009.4 |
| 20260507040045 | 53 | 206 | 0.0 | 2.0 | 0.00 | 0.00 | 0.00 | 86 | 1009.2 |
| 20260507034605 | 53 | 174 | 0.0 | 1.0 | 0.00 | 0.00 | 0.00 | 87 | 1009.0 |
| 20260507033024 | 53 | 136 | 0.0 | 1.0 | 0.00 | 0.00 | 0.00 | 87 | 1009.0 |
| 20260507031516 | 54 | 257 | 0.0 | 2.0 | 0.00 | 0.00 | 0.00 | 86 | 1008.8 |
| 20260507030045 | 53 | 248 | 0.0 | 2.0 | 0.00 | 0.00 | 0.00 | 87 | 1008.5 |
| 20260507024550 | 54 | 264 | 0.0 | 1.0 | 0.00 | 0.00 | 0.00 | 87 | 1008.4 |
| 20260507023008 | 54 | 250 | 0.0 | 1.0 | 0.00 | 0.00 | 0.00 | 86 | 1008.4 |
| 20260507021545 | 54 | 245 | 0.0 | 4.0 | 0.00 | 0.00 | 0.00 | 86 | 1008.2 |
| 20260507020048 | 54 | 242 | 0.0 | 4.0 | 0.00 | 0.00 | 0.00 | 87 | 1008.3 |
| 20260507014559 | 54 | 280 | 1.0 | 4.0 | 0.00 | 0.00 | 0.00 | 87 | 1008.1 |
| 20260507013000 | 54 | 282 | 1.0 | 5.0 | 0.00 | 0.00 | 0.00 | 87 | 1007.8 |
| 20260507011535 | 54 | 262 | 1.0 | 3.0 | 0.00 | 0.00 | 0.00 | 86 | 1007.9 |
| 20260507010047 | 54 | 262 | 0.0 | 3.0 | 0.00 | 0.00 | 0.00 | 85 | 1007.5 |
| 20260507004600 | 55 | 273 | 1.0 | 5.0 | 0.00 | 0.00 | 0.00 | 85 | 1007.6 |
| 20260507003001 | 55 | 238 | 0.0 | 3.0 | 0.00 | 0.00 | 0.00 | 83 | 1007.6 |
| 20260507001517 | 55 | 286 | 0.0 | 4.0 | 0.00 | 0.00 | 0.00 | 83 | 1007.1 |
| 20260507000033 | 55 | 259 | 0.0 | 4.0 | 0.00 | 0.00 | 0.00 | 83 | 1007.4 |
| 20260506234619 | 55 | 281 | 1.0 | 4.0 | 0.00 | 0.00 | 0.00 | 82 | 1007.4 |
| 20260506233048 | 56 | 269 | 0.0 | 4.0 | 0.00 | 0.00 | 0.00 | 82 | 1007.0 |
| 20260506231524 | 56 | 229 | 1.0 | 5.0 | 0.00 | 0.00 | 0.00 | 80 | 1007.0 |
| 20260506230018 | 56 | 240 | 0.0 | 5.0 | 0.00 | 0.00 | 0.00 | 80 | 1006.8 |
| 20260506224535 | 57 | 267 | 0.0 | 3.0 | 0.00 | 0.00 | 0.00 | 80 | 1006.3 |
| 20260506223056 | 57 | 333 | 1.0 | 6.0 | 0.00 | 0.00 | 0.00 | 79 | 1005.8 |
| 20260506221506 | 58 | 290 | 1.0 | 5.0 | 0.00 | 0.00 | 0.00 | 79 | 1005.4 |
| 20260506220035 | 58 | 255 | 1.0 | 8.0 | 0.00 | 0.00 | 0.00 | 78 | 1005.6 |
| 20260506214531 | 59 | 291 | 1.0 | 6.0 | 0.00 | 0.00 | 0.00 | 78 | 1005.3 |
| 20260506213101 | 59 | 288 | 2.0 | 12.0 | 0.00 | 0.00 | 0.00 | 77 | 1005.0 |
| 20260506211516 | 61 | 271 | 3.0 | 10.0 | 0.00 | 0.00 | 0.00 | 74 | 1004.8 |
| 20260506210137 | 61 | 263 | 1.0 | 8.0 | 0.00 | 0.00 | 0.00 | 69 | 1004.2 |
| 20260506204550 | 60 | 126 | 0.0 | 5.0 | 0.00 | 0.00 | 0.00 | 72 | 1004.1 |
| 20260506203051 | 61 | 120 | 0.0 | 0.0 | 0.00 | 0.00 | 0.00 | 72 | 1003.7 |
| 20260506201508 | 62 | 122 | 0.0 | 1.0 | 0.00 | 0.00 | 0.00 | 70 | 1003.7 |
| 20260506200027 | 62 | 146 | 0.0 | 1.0 | 0.00 | 0.00 | 0.00 | 69 | 1003.8 |
| 20260506194553 | 63 | 226 | 1.0 | 5.0 | 0.00 | 0.00 | 0.00 | 69 | 1003.7 |
| 20260506193052 | 63 | 129 | 0.0 | 1.0 | 0.00 | 0.00 | 0.00 | 68 | 1003.6 |
| 20260506191603 | 64 | 117 | 0.0 | 2.0 | 0.00 | 0.00 | 0.00 | 66 | 1003.4 |
| 20260506184546 | 66 | 99 | 1.0 | 7.0 | 0.00 | 0.00 | 0.00 | 62 | 1002.9 |
| 20260506183107 | 66 | 68 | 3.0 | 10.0 | 0.00 | 0.00 | 0.00 | 61 | 1002.7 |
| 20260506181558 | 67 | 96 | 3.0 | 7.0 | 0.00 | 0.00 | 0.00 | 60 | 1002.9 |